sat.trackr.live / text

‹ back to catalog

CARTOSAT-3

NORAD 44804 · 2019-081A

PAYLOAD ACTIVE UNKNOWN

§ Identity

Operator
Country
IND
Launch date
2019-11-27
Launch site
SRILR
Launch vehicle
Mass (kg)
RCS (m²)

Purposes: earth_obs

External: N2YO · Heavens-Above · Gunter

§ Orbital elements

Epoch: 2026-05-25T04:06:22.150080Z

Period
94.78 min
Inclination
97.4316°
Eccentricity
0.0011612
Mean motion
15.19260215 rev/d
Perigee alt
500.1 km
Apogee alt
516.1 km
Semi-major
6,886.2 km
B*
1.1130e-4
RAAN
207.4053°
Arg perigee
226.5959°
Mean anomaly
133.4310°
Rev number
35,997

§ Raw data

CARTOSAT-31 44804U 19081A   26145.17108970  .00002281  00000+0  11130-3 0  99912 44804  97.4316 207.4053 0011612 226.5959 133.4310 15.19260215359972

JSON: /api/v1/satellites/44804 · /tle

For live sub-satellite position, see the globe view (requires WebGL).

§ Visibility from observer

Set your observer location to see the next 7 days of passes ≥ 10°. The values pass through the URL so the page stays shareable.

No JS? Fill the form by hand. The geolocation button needs JavaScript.

§ Radio — SatNOGS DB

ModeDescriptionDownlinkUplink
CW Beacon 2.225 GHz
BPSK Beacon sideband 2.225 GHz

2 transmitters · refreshed weekly from db.satnogs.org